User: anonymous   Login
Location: Blanot
(47.1713°N, 4.2340°E)
Time: 17:23:01
(UTC+00:00)
Language:

H-2A R/B - Orbit

View from above orbital plane
View from above orbital plane
View from above satellite
View from above satellite

Ground track
Ground track

The orbit data is extracted from the following two-line orbital elements,

1 38341U 12025E   20270.71840369 +.00000236 +00000-0 +35269-4 0  9998
2 38341 098.5126 072.3662 0054273 266.5439 092.9564 14.84074258452463
Epoch (UTC): 26 September 2020 17:14:30
Eccentricity: 0.0054273
inclination: 98.5126°
perigee height: 578 km
apogee height: 654 km
right ascension of ascending node: 72.3662°
argument of perigee: 266.5439°
revolutions per day: 14.84074258
mean anomaly at epoch: 92.9564°
orbit number at epoch: 45246

The dashed part of the orbit path shows where the satellite is in the earth's shadow,  

DLR